Content
SEND FEEDBACK

Daily
Averages
Monthly
Summary
United States of America

EUREKA, CALIFORNIA


Home > North America > United States > California
Elevation: 59 feet     Latitude: 40 48N     Longitude: 124 07W

WEATHER
 
SELECT A DAY
Number of Records: 245,521;   Date Range: 1/1/95 - 12/17/14
 
SHARE

PRINT THIS DATA

[ ← Previous Day ]
WEATHER ALMANAC - MARCH 31, 2013
[ Next Day → ]
[ °C ]   °F
Weather ElementAverageHighLow
Temperature50.5 °F52 °F (9:53 am)48 °F (4:53 am)
Dewpoint50.5 °F52 °F (9:53 am)48 °F (4:53 am)
Humidity100 %100 % (1:53 am)100 % (1:53 am)
Barometer30.05 in30.08 in (10:53 am)29.97 in (4:25 am)
Wind Speed5.5 mph13.8 mph (3:46 pm)
Weather ElementAverage
Visibility4.6 mi
Wind DirectionSSW (189.2 °)

Weather ElementTotal
Precipitation0.31 in
Heating Degree Days15 (Base 65)
Averaged from 61 records on March 31, 2013
WEATHER CONDITIONS BREAKOUT
WIND DIRECTION BREAKOUT
WEATHER BY HOUR - MARCH 31, 2013
[ °C ]   °F
Local TimeTemperatureDewpointHumidityBarometerVisibilityWind DirectionWind SpeedGust SpeedPrecipitationEventsConditions
1:53 AM50.0 °F50.0 °F100 %30.03 in10.0 miESE (110°)3.5 mph0.03 inOvercast
2:53 AM50.0 °F50.0 °F100 %30.00 in10.0 miCalm0.01 inOvercast
3:18 AM48.2 °F48.2 °F100 %29.98 in7.0 miSouth (180°)6.9 mphOvercast
3:53 AM50.0 °F50.0 °F100 %29.99 in10.0 miCalmMostly Cloudy
4:25 AM48.2 °F48.2 °F100 %29.97 in1.8 miSW (220°)3.5 mphScattered Clouds
4:35 AM48.2 °F48.2 °F100 %29.97 in4.0 miCalmMostly Cloudy
4:53 AM48.0 °F48.0 °F100 %30.00 in10.0 miSouth (170°)5.8 mphMostly Cloudy
5:53 AM48.9 °F48.9 °F100 %30.00 in10.0 miCalmOvercast
6:53 AM50.0 °F50.0 °F100 %30.02 in9.0 miCalm0.00 inOvercast
7:53 AM51.1 °F51.1 °F100 %30.05 in6.0 miCalm0.01 inRainLight Rain
8:32 AM51.8 °F51.8 °F100 %30.04 in2.5 miEast (90°)3.5 mph0.04 inRainRain
8:53 AM51.1 °F51.1 °F100 %30.06 in3.0 miCalm0.09 inRainLight Rain
9:14 AM51.8 °F51.8 °F100 %30.04 in4.0 miCalm0.01 inRainLight Rain
9:29 AM51.8 °F51.8 °F100 %30.04 in5.0 miCalm0.02 inRainLight Rain
9:42 AM51.8 °F51.8 °F100 %30.04 in2.5 miENE (60°)3.5 mph0.03 inRainLight Rain
9:51 AM51.8 °F51.8 °F100 %30.04 in6.0 miENE (60°)4.6 mph0.03 inRainLight Rain
9:53 AM52.0 °F52.0 °F100 %30.06 in7.0 miCalm0.03 inRainLight Rain
10:53 AM52.0 °F52.0 °F100 %30.08 in3.0 miWNW (300°)4.6 mph0.01 inOvercast
11:46 AM51.8 °F51.8 °F100 %30.06 in10.0 miNNW (340°)5.8 mphOvercast
11:53 AM52.0 °F52.0 °F100 %30.08 in10.0 miNorth (360°)6.9 mphOvercast
12:48 PM51.8 °F51.8 °F100 %30.06 in1.8 miNNW (340°)10.4 mphOvercast
12:53 PM52.0 °F52.0 °F100 %30.08 in0.5 miNNW (330°)9.2 mphFogFog
1:02 PM51.8 °F51.8 °F100 %30.07 in0.2 miNNW (340°)9.2 mphFogFog
1:38 PM50.0 °F50.0 °F100 %30.06 in0.2 miNorth (350°)11.5 mphFogFog
1:53 PM51.1 °F51.1 °F100 %30.07 in0.2 miNNW (340°)9.2 mphFogFog
2:10 PM51.8 °F51.8 °F100 %30.05 in0.2 miNNW (340°)10.4 mphFogFog
2:17 PM51.8 °F51.8 °F100 %30.05 in0.2 miNNW (330°)9.2 mphFogFog
2:25 PM51.8 °F51.8 °F100 %30.05 in0.2 miNNW (330°)9.2 mphFogFog
2:34 PM50.0 °F50.0 °F100 %30.04 in0.2 miNNW (340°)9.2 mphFogFog
2:53 PM51.1 °F51.1 °F100 %30.06 in0.2 miNNW (340°)9.2 mphFogFog
3:06 PM50.0 °F50.0 °F100 %30.03 in0.2 miNNW (340°)8.1 mphFogFog
3:19 PM51.8 °F51.8 °F100 %30.03 in0.5 miNNW (340°)9.2 mphFogFog
3:31 PM51.8 °F51.8 °F100 %30.03 in1.5 miNW (320°)11.5 mphOvercast
3:46 PM50.0 °F50.0 °F100 %30.03 in0.2 miNW (320°)13.8 mphFogFog
3:53 PM50.0 °F50.0 °F100 %30.06 in0.2 miNW (320°)10.4 mphFogFog
4:09 PM50.0 °F50.0 °F100 %30.04 in0.8 miNW (310°)11.5 mphMist
4:13 PM50.0 °F50.0 °F100 %30.04 in2.0 miNW (310°)9.2 mphOvercast
4:22 PM50.0 °F50.0 °F100 %30.04 in8.0 miNW (310°)11.5 mphOvercast
4:43 PM50.0 °F50.0 °F100 %30.04 in1.5 miNW (320°)11.5 mphOvercast
4:49 PM50.0 °F50.0 °F100 %30.04 in0.2 miNW (310°)10.4 mphFogFog
4:53 PM50.0 °F50.0 °F100 %30.06 in0.2 miNW (310°)9.2 mphFogFog
5:01 PM50.0 °F50.0 °F100 %30.05 in0.2 miNW (310°)9.2 mphFogFog
5:21 PM50.0 °F50.0 °F100 %30.04 in0.5 miNW (320°)10.4 mphFogFog
5:34 PM50.0 °F50.0 °F100 %30.05 in2.0 miNW (320°)9.2 mphOvercast
5:49 PM50.0 °F50.0 °F100 %30.05 in4.0 miNNW (330°)8.1 mphOvercast
5:53 PM50.0 °F50.0 °F100 %30.07 in4.0 miNNW (330°)6.9 mphOvercast
6:13 PM50.0 °F50.0 °F100 %30.05 in6.0 miNNW (340°)6.9 mphOvercast
6:44 PM50.0 °F50.0 °F100 %30.05 in7.0 miNNE (20°)4.6 mphOvercast
6:53 PM50.0 °F50.0 °F100 %30.07 in7.0 miNE (50°)4.6 mphOvercast
7:12 PM50.0 °F50.0 °F100 %30.04 in10.0 miENE (60°)5.8 mphOvercast
7:53 PM51.1 °F51.1 °F100 %30.07 in10.0 miCalmOvercast
8:10 PM50.0 °F50.0 °F100 %30.05 in4.0 miNNW (330°)3.5 mphOvercast
8:17 PM50.0 °F50.0 °F100 %30.05 in4.0 miNorth (350°)3.5 mphOvercast
8:53 PM51.1 °F51.1 °F100 %30.07 in4.0 miCalmOvercast
9:53 PM51.1 °F51.1 °F100 %30.08 in8.0 miCalmOvercast
10:18 PM51.8 °F51.8 °F100 %30.07 in10.0 miCalmOvercast
10:39 PM50.0 °F50.0 °F100 %30.06 in9.0 miCalmOvercast
10:53 PM50.0 °F50.0 °F100 %30.08 in10.0 miCalmOvercast
11:26 PM50.0 °F50.0 °F100 %30.05 in10.0 miCalmOvercast
11:35 PM50.0 °F50.0 °F100 %30.05 in10.0 miCalmOvercast
11:53 PM50.0 °F50.0 °F100 %30.08 in10.0 miCalmOvercast
Hourly data recorded from KACV, located miles away from Eureka, California







STORIES FROM OUR PARTNERS